EW5720 Weather Reports


time (UTC)temp
C
wind
direction
speed
KPH
gust
KPH
rain 1hr
cm
rain 24hr
cm
rain mn
cm
humidity
%
barometer
mb
20260906181054 21 146 6.4 14.5 0.00 0.00 0.00 88 1018.8
20260906180554 21 138 6.4 14.5 0.00 0.00 0.00 89 1018.8
20260906180106 21 146 3.2 14.5 0.00 0.00 0.00 89 1018.9
20260906175555 21 146 6.4 14.5 0.00 0.00 0.00 89 1019.0
20260906175055 21 152 6.4 14.5 0.00 0.00 0.00 89 1019.0
20260906174606 21 151 6.4 12.9 0.00 0.00 0.00 89 1019.2
20260906174054 21 152 6.4 12.9 0.00 0.00 0.00 89 1019.4
20260906173555 21 148 4.8 14.5 0.00 0.00 0.00 89 1019.4
20260906173107 21 150 6.4 14.5 0.00 0.00 0.00 89 1019.3
20260906172554 21 147 6.4 14.5 0.00 0.00 0.00 88 1019.3
20260906172054 21 142 6.4 14.5 0.00 0.00 0.00 88 1019.3
20260906171602 21 151 4.8 16.1 0.00 0.00 0.00 88 1019.5
20260906171055 21 145 6.4 20.9 0.00 0.00 0.00 88 1019.7
20260906170554 21 136 11.3 20.9 0.00 0.00 0.00 88 1019.7
20260906170106 21 145 11.3 20.9 0.00 0.00 0.00 88 1019.7
20260906165556 21 146 9.7 17.7 0.00 0.00 0.00 88 1019.8
20260906165054 21 153 12.9 24.1 0.00 0.00 0.00 88 1019.8
20260906164620 21 144 11.3 24.1 0.00 0.00 0.00 88 1019.9
20260906164054 21 155 14.5 20.9 0.00 0.00 0.00 88 1019.8
20260906163555 21 144 12.9 20.9 0.00 0.00 0.00 88 1019.7
20260906163107 21 127 14.5 22.5 0.00 0.00 0.00 88 1019.7
20260906162555 21 154 14.5 25.7 0.00 0.00 0.00 87 1019.8
20260906162053 21 157 16.1 29.0 0.00 0.00 0.00 87 1019.6
20260906161601 21 147 19.3 29.0 0.00 0.00 0.00 87 1019.4
20260906161054 21 148 19.3 29.0 0.00 0.00 0.00 87 1019.3
20260906160554 21 138 19.3 29.0 0.00 0.00 0.00 87 1019.2
20260906160105 21 151 20.9 27.4 0.00 0.00 0.00 88 1019.4
20260906155555 21 150 16.1 25.7 0.00 0.00 0.00 89 1019.4
20260906155059 21 153 17.7 27.4 0.00 0.00 0.00 88 1019.4
20260906154609 21 155 19.3 27.4 0.00 0.00 0.00 90 1019.2
20260906154056 21 127 19.3 27.4 0.00 0.00 0.00 90 1019.2
20260906153554 20 150 17.7 24.1 0.00 0.00 0.00 91 1019.1
20260906153106 20 360 12.9 22.5 0.00 0.00 0.00 92 1019.3
20260906152556 20 144 11.3 22.5 0.00 0.00 0.00 92 1019.3
20260906152054 20 148 12.9 27.4 0.00 0.00 0.00 92 1019.4
20260906151608 20 148 16.1 27.4 0.00 0.00 0.00 92 1019.5
20260906151056 20 144 16.1 27.4 0.00 0.00 0.00 92 1019.5
20260906150555 20 142 14.5 27.4 0.00 0.00 0.00 92 1019.4
20260906150109 20 134 19.3 25.7 0.00 0.00 0.00 92 1019.5
20260906145554 20 132 16.1 29.0 0.00 0.00 0.00 93 1019.5
20260906145055 20 145 16.1 29.0 0.00 0.00 0.00 93 1019.5
20260906144631 20 148 16.1 27.4 0.00 0.00 0.00 93 1019.5
20260906144055 20 151 19.3 27.4 0.00 0.00 0.00 93 1019.5
20260906143555 20 146 12.9 27.4 0.00 0.00 0.00 93 1019.4
20260906143115 20 128 16.1 27.4 0.00 0.00 0.00 93 1019.5
20260906142554 20 157 20.9 25.7 0.00 0.00 0.00 93 1019.5
20260906142055 20 146 19.3 27.4 0.00 0.00 0.00 93 1019.5
20260906141606 20 156 17.7 30.6 0.00 0.00 0.00 93 1019.5
20260906141054 20 147 20.9 32.2 0.00 0.00 0.00 93 1019.5
20260906140556 20 151 22.5 33.8 0.00 0.00 0.00 93 1019.4
20260906140107 19 144 22.5 37.0 0.00 0.00 0.00 93 1019.4
20260906135555 20 142 24.1 37.0 0.00 0.00 0.00 93 1019.4
20260906135056 20 147 19.3 29.0 0.00 0.00 0.00 93 1019.5
20260906134604 19 159 16.1 32.2 0.00 0.00 0.00 93 1019.6
20260906134056 19 153 17.7 32.2 0.00 0.00 0.00 93 1019.6
20260906133554 19 153 20.9 30.6 0.00 0.00 0.00 93 1019.6
20260906133109 20 146 20.9 27.4 0.00 0.00 0.00 93 1019.6
20260906132554 20 148 16.1 24.1 0.00 0.00 0.00 93 1019.4
20260906132056 20 155 12.9 22.5 0.00 0.00 0.00 93 1019.4
20260906131610 20 146 11.3 24.1 0.00 0.00 0.00 93 1019.4
20260906131053 20 146 14.5 27.4 0.00 0.00 0.00 94 1019.3
20260906130553 19 147 17.7 27.4 0.00 0.00 0.00 94 1019.2
20260906130106 20 146 14.5 27.4 0.00 0.00 0.00 94 1019.2
20260906125553 19 159 16.1 29.0 0.00 0.00 0.00 94 1019.1
20260906125053 19 151 14.5 30.6 0.00 0.00 0.00 94 1019.1
20260906124605 19 158 22.5 30.6 0.00 0.00 0.00 94 1018.8
20260906124053 19 154 22.5 30.6 0.00 0.00 0.00 94 1018.7
20260906123554 19 160 19.3 29.0 0.00 0.00 0.00 93 1018.6
20260906123111 19 156 17.7 29.0 0.00 0.00 0.00 93 1018.5
20260906122553 19 153 17.7 27.4 0.00 0.00 0.00 94 1018.4
20260906122056 19 144 17.7 27.4 0.00 0.00 0.00 93 1018.3
20260906121602 19 144 16.1 27.4 0.00 0.00 0.00 93 1018.2
20260906121053 19 140 12.9 24.1 0.00 0.00 0.00 93 1018.1
20260906120556 19 146 14.5 22.5 0.00 0.00 0.00 93 1018.1
20260906120126 19 147 12.9 22.5 0.00 0.00 0.00 93 1018.0
20260906115553 19 141 12.9 22.5 0.00 0.00 0.00 93 1018.0
20260906115055 19 139 14.5 22.5 0.00 0.00 0.00 93 1018.0
20260906114609 19 153 14.5 22.5 0.00 0.00 0.00 93 1018.0
20260906114053 19 150 14.5 22.5 0.00 0.00 0.00 93 1018.0
20260906113553 19 139 14.5 20.9 0.00 0.00 0.00 93 1018.0
20260906113104 19 153 11.3 20.9 0.00 0.00 0.00 93 1018.1
20260906112553 19 150 14.5 19.3 0.00 0.00 0.00 93 1018.1
20260906112052 18 139 12.9 19.3 0.00 0.00 0.00 93 1018.1
20260906111604 18 151 12.9 19.3 0.00 0.00 0.00 93 1018.1
20260906111057 18 142 14.5 19.3 0.00 0.00 0.00 93 1018.1
20260906110553 18 152 11.3 19.3 0.00 0.00 0.00 93 1018.1
20260906110111 18 143 11.3 19.3 0.00 0.00 0.00 93 1018.2
20260906105553 18 147 12.9 19.3 0.00 0.00 0.00 93 1018.1
20260906105054 18 148 11.3 16.1 0.00 0.00 0.00 93 1018.2
20260906104606 18 150 11.3 17.7 0.00 0.00 0.00 93 1018.2
20260906104053 18 150 11.3 19.3 0.00 0.00 0.00 93 1018.2
20260906103553 19 142 12.9 19.3 0.00 0.00 0.00 93 1018.2
20260906103104 19 146 9.7 19.3 0.00 0.00 0.00 93 1018.2
20260906102554 19 144 11.3 19.3 0.00 0.00 0.00 93 1018.2
20260906102054 19 144 12.9 19.3 0.00 0.00 0.00 93 1018.0
20260906101604 19 152 12.9 19.3 0.00 0.00 0.00 93 1017.8
20260906101054 19 148 12.9 19.3 0.00 0.00 0.00 93 1017.7
20260906100554 19 137 11.3 19.3 0.00 0.00 0.00 93 1017.5
20260906100110 18 144 14.5 19.3 0.00 0.00 0.00 93 1017.6
20260906095554 18 160 12.9 19.3 0.00 0.00 0.00 93 1017.5
20260906095057 18 145 12.9 17.7 0.00 0.00 0.00 92 1017.6
20260906094606 18 149 11.3 17.7 0.00 0.00 0.00 92 1017.6
20260906094054 18 146 12.9 17.7 0.00 0.00 0.00 92 1017.6
20260906093555 18 144 12.9 16.1 0.00 0.00 0.00 92 1017.6
20260906093118 18 150 11.3 16.1 0.00 0.00 0.00 92 1017.7
20260906092554 18 139 11.3 17.7 0.00 0.00 0.00 92 1017.6
20260906092055 18 148 9.7 17.7 0.00 0.00 0.00 92 1017.5
20260906091606 18 148 11.3 16.1 0.00 0.00 0.00 92 1017.6
20260906091059 18 150 11.3 16.1 0.00 0.00 0.00 92 1017.5
20260906090554 18 146 9.7 14.5 0.00 0.00 0.00 92 1017.5
20260906090137 18 119 8.0 14.5 0.00 0.00 0.00 92 1017.4
20260906085554 18 135 8.0 14.5 0.00 0.00 0.00 92 1017.3
20260906085054 19 140 8.0 12.9 0.00 0.00 0.00 92 1017.3
20260906084605 19 134 6.4 12.9 0.00 0.00 0.00 92 1017.3
20260906084053 19 150 4.8 12.9 0.00 0.00 0.00 92 1017.2
20260906083554 19 142 3.2 11.3 0.00 0.00 0.00 92 1017.2
20260906083100 19 151 3.2 12.9 0.00 0.00 0.00 92 1017.2
20260906082554 19 153 6.4 12.9 0.00 0.00 0.00 92 1017.2
20260906082053 19 152 6.4 12.9 0.00 0.00 0.00 92 1017.1
20260906081601 19 149 4.8 11.3 0.00 0.00 0.00 92 1017.2
20260906081056 19 148 6.4 11.3 0.00 0.00 0.00 92 1017.2
20260906080554 20 147 4.8 11.3 0.00 0.00 0.00 92 1017.2
20260906080105 20 142 3.2 12.9 0.00 0.00 0.00 92 1017.3
20260906075555 20 148 4.8 12.9 0.00 0.00 0.00 92 1017.2
20260906075055 20 144 4.8 12.9 0.00 0.00 0.00 92 1017.2
20260906074604 20 142 3.2 14.5 0.00 0.00 0.00 92 1017.1
20260906074053 20 360 3.2 14.5 0.00 0.00 0.00 92 1017.2
20260906073554 20 134 6.4 14.5 0.00 0.00 0.00 91 1017.2
20260906073100 20 146 4.8 11.3 0.00 0.00 0.00 91 1017.4
20260906072553 20 154 3.2 8.0 0.00 0.00 0.00 92 1017.5
20260906072054 20 134 1.6 11.3 0.00 0.00 0.00 92 1017.5
20260906071610 20 0 0.0 12.9 0.00 0.00 0.00 91 1017.5
20260906071052 20 137 4.8 12.9 0.00 0.00 0.00 91 1017.6
20260906070553 20 123 3.2 12.9 0.00 0.00 0.00 91 1017.5
20260906070105 20 111 3.2 12.9 0.00 0.00 0.00 91 1017.5
20260906065553 20 144 3.2 12.9 0.00 0.00 0.00 91 1017.6
20260906065053 20 123 1.6 11.3 0.00 0.00 0.00 91 1017.7
20260906064604 20 0 1.6 12.9 0.00 0.00 0.00 91 1017.8
20260906064053 20 144 6.4 12.9 0.00 0.00 0.00 91 1017.7
20260906063553 20 142 6.4 16.1 0.00 0.00 0.00 91 1017.8
20260906063103 21 148 8.0 16.1 0.00 0.00 0.00 91 1017.6
20260906062552 21 153 9.7 16.1 0.00 0.00 0.00 91 1017.6
20260906062057 21 140 3.2 11.3 0.00 0.00 0.00 91 1017.7
20260906061604 21 146 4.8 12.9 0.00 0.00 0.00 91 1017.6
20260906061054 21 140 4.8 14.5 0.00 0.00 0.00 91 1017.6
20260906060553 21 140 4.8 14.5 0.00 0.00 0.00 91 1017.6
20260906060109 21 109 6.4 14.5 0.00 0.00 0.00 91 1017.6
20260906055553 21 0 3.2 14.5 0.00 0.00 0.00 91 1017.7
20260906055054 21 130 3.2 11.3 0.00 0.00 0.00 91 1017.9
20260906054603 21 131 3.2 12.9 0.00 0.00 0.00 91 1017.8
20260906054053 21 132 1.6 17.7 0.00 0.00 0.00 91 1017.9
20260906053552 21 138 3.2 17.7 0.00 0.00 0.00 91 1017.8
20260906053101 21 134 4.8 14.5 0.00 0.00 0.00 91 1017.8
20260906052552 21 111 4.8 17.7 0.00 0.00 0.00 91 1017.8
20260906052053 21 127 4.8 17.7 0.00 0.00 0.00 91 1017.6
20260906051606 21 141 3.2 17.7 0.00 0.00 0.00 91 1017.6
20260906051052 21 120 4.8 17.7 0.00 0.00 0.00 91 1017.7
20260906050552 22 119 4.8 17.7 0.00 0.00 0.00 91 1017.6
20260906050132 22 91 3.2 14.5 0.00 0.00 0.00 91 1017.5
20260906045553 22 121 3.2 11.3 0.00 0.00 0.00 91 1017.6
20260906045053 22 0 1.6 12.9 0.00 0.00 0.00 91 1017.5
20260906044602 22 0 0.0 12.9 0.00 0.00 0.00 91 1017.5
20260906044053 22 103 3.2 12.9 0.00 0.00 0.00 91 1017.5
20260906043552 22 113 3.2 12.9 0.00 0.00 0.00 91 1017.5
20260906043109 22 128 3.2 11.3 0.00 0.00 0.00 91 1017.4
20260906042552 22 128 1.6 11.3 0.00 0.00 0.00 90 1017.4
20260906042058 22 123 0.0 14.5 0.00 0.00 0.00 90 1017.6
20260906041606 22 0 0.0 14.5 0.00 0.00 0.00 90 1017.5
20260906041053 22 76 4.8 14.5 0.00 0.00 0.00 90 1017.5
20260906040554 22 91 6.4 12.9 0.00 0.00 0.00 90 1017.5
20260906040114 22 98 4.8 12.9 0.00 0.00 0.00 90 1017.4
20260906035555 22 95 6.4 12.9 0.00 0.00 0.00 90 1017.4
20260906035054 22 105 3.2 9.7 0.00 0.00 0.00 90 1017.5
20260906034606 22 0 1.6 11.3 0.00 0.00 0.00 90 1017.4
20260906034056 22 129 1.6 11.3 0.00 0.00 0.00 90 1017.4
20260906033553 22 0 0.0 11.3 0.00 0.00 0.00 90 1017.5
20260906033106 22 129 0.0 11.3 0.00 0.00 0.00 90 1017.4
20260906032550 22 134 3.2 11.3 0.00 0.00 0.00 90 1017.4
20260906032050 22 114 3.2 6.4 0.00 0.00 0.00 90 1017.4
20260906031907 22 0 0.0 1.6 0.00 0.00 0.00 90 1017.4
20260906031055 22 0 0.0 0.0 0.00 0.00 0.00 90 1017.4
20260906030555 22 0 0.0 0.0 0.00 0.00 0.00 90 1017.4
20260906030135 22 0 0.0 0.0 0.00 0.00 0.00 90 1017.4
20260906025555 22 0 0.0 0.0 0.00 0.00 0.00 90 1017.4
20260906025054 22 0 0.0 0.0 0.00 0.00 0.00 90 1017.3
20260906024611 22 0 0.0 0.0 0.00 0.00 0.00 90 1017.3
20260906023555 22 0 0.0 6.4 0.00 0.00 0.00 90 1017.2
20260906023126 22 0 0.0 9.7 0.00 0.00 0.00 90 1017.2
20260906022554 22 88 1.6 11.3 0.00 0.00 0.00 90 1017.1
20260906022057 23 103 4.8 11.3 0.00 0.00 0.00 89 1017.1
20260906021613 23 98 4.8 9.7 0.00 0.00 0.00 89 1017.1
20260906021053 23 102 3.2 9.7 0.00 0.00 0.00 89 1017.1
20260906020553 23 0 0.0 6.4 0.00 0.00 0.00 89 1017.0
20260906020107 23 115 1.6 6.4 0.00 0.00 0.00 89 1016.9
20260906015642 23 115 3.2 6.4 0.00 0.00 0.00 89 1016.9
20260906015053 23 115 1.6 9.7 0.00 0.00 0.00 89 1016.8
20260906014630 23 0 1.6 9.7 0.00 0.00 0.00 89 1016.6
20260906014055 23 113 3.2 6.4 0.00 0.00 0.00 89 1016.6
20260906013554 23 117 3.2 6.4 0.00 0.00 0.00 89 1016.5
20260906013103 23 120 3.2 6.4 0.00 0.00 0.00 88 1016.5
20260906012928 23 121 1.6 4.8 0.00 0.00 0.00 88 1016.4
20260905220107 24 96 3.2 11.3 0.00 0.00 0.00 85 1015.3
20260905215554 24 0 1.6 12.9 0.00 0.00 0.00 84 1015.2
20260905215054 24 76 3.2 17.7 0.00 0.00 0.00 84 1015.4
20260905214610 24 132 1.6 17.7 0.00 0.00 0.00 84 1015.3
20260905214054 24 112 4.8 16.1 0.00 0.00 0.00 85 1015.4
20260905213554 24 130 1.6 19.3 0.00 0.00 0.00 84 1015.5
20260905213114 24 103 3.2 19.3 0.00 0.00 0.00 84 1015.5
20260905212554 24 0 4.8 17.7 0.00 0.00 0.00 84 1015.4
20260905212053 24 100 6.4 17.7 0.00 0.00 0.00 83 1015.6
20260905211604 24 122 6.4 16.1 0.00 0.00 0.00 83 1015.5
20260905211053 24 129 6.4 17.7 0.00 0.00 0.00 83 1015.5
20260905210549 25 113 4.8 19.3 0.00 0.00 0.00 83 1015.7
20260905210109 25 146 4.8 19.3 0.00 0.00 0.00 83 1015.6
20260905205555 25 100 4.8 17.7 0.00 0.00 0.00 83 1015.6
20260905205058 25 115 6.4 19.3 0.00 0.00 0.00 84 1015.6
20260905204603 25 123 3.2 19.3 0.00 0.00 0.00 84 1015.7
20260905204053 25 132 8.0 19.3 0.00 0.00 0.00 84 1015.6
20260905203557 25 106 6.4 17.7 0.00 0.00 0.00 85 1015.6
20260905203108 25 149 11.3 17.7 0.00 0.00 0.00 84 1015.6
20260905202551 25 153 8.0 16.1 0.00 0.00 0.00 84 1015.7
20260905202053 25 144 6.4 16.1 0.00 0.00 0.00 84 1015.6
20260905201608 25 144 6.4 16.1 0.00 0.00 0.00 84 1015.6
20260905201053 25 142 8.0 29.0 0.00 0.00 0.00 84 1015.6
20260905200550 25 136 8.0 29.0 0.00 0.00 0.00 84 1015.4
20260905195549 26 108 9.7 22.5 0.00 0.00 0.00 84 1015.4
20260905195053 25 111 4.8 22.5 0.00 0.00 0.00 83 1015.9
20260905194608 26 136 6.4 22.5 0.00 0.00 0.00 84 1015.7
20260905194054 26 100 9.7 27.4 0.00 0.00 0.00 83 1015.5
20260905193551 26 99 6.4 37.0 0.00 0.00 0.00 85 1015.4
20260905193106 25 91 12.9 37.0 0.00 0.00 0.00 85 1015.3
20260905192550 25 106 14.5 37.0 0.00 0.00 0.00 85 1015.0
20260905192057 25 80 8.0 30.6 0.00 0.00 0.00 85 1014.9
20260905191615 25 90 12.9 30.6 0.00 0.00 0.00 86 1015.3
20260905191054 25 87 14.5 29.0 0.00 0.00 0.00 87 1015.1
20260905190556 25 81 16.1 32.2 0.00 0.00 0.00 87 1015.1
20260905190105 25 73 20.9 32.2 0.00 0.00 0.00 87 1015.0
20260905185556 25 97 20.9 32.2 0.00 0.00 0.00 87 1015.2
20260905185055 25 360 14.5 24.1 0.00 0.00 0.00 87 1015.8
20260905184618 25 101 11.3 22.5 0.00 0.00 0.00 88 1016.3
20260905184053 25 94 11.3 22.5 0.00 0.00 0.00 87 1016.4
20260905183554 25 126 6.4 19.3 0.00 0.00 0.00 89 1016.8
20260905183103 25 92 6.4 16.1 0.00 0.00 0.00 89 1017.1
20260905182557 25 87 3.2 16.1 0.00 0.00 0.00 89 1017.2
20260905182053 24 74 3.2 16.1 0.00 0.00 0.00 90 1017.4
20260905181606 24 69 8.0 16.1 0.00 0.00 0.00 90 1017.4